Track COSMOS 2228 now! 10-day predictions COSMOS 2228 is classified as:
1 22286U 92094A 22226.98254955 .00000708 00000-0 72688-4 0 9995 2 22286 82.5192 35.5056 0020355 345.1880 14.8738 14.88832960602803